Weather History for Minneapolis, MN

Change the Weather History Date:

Tuesday, April 15, 2014

  Actual Average Record
Temperature  
Mean Temperature 27 °F 47 °F  
Max Temperature 36 °F 58 °F 91 °F (2002)
Min Temperature 18 °F 37 °F 18 °F (1935)
Degree Days  
Heating Degree Days 38 18  
Month to date heating degree days 360 319  
Since 1 July heating degree days 8030 7107  
Cooling Degree Days 0 0  
Month to date cooling degree days 0 0  
Year to date cooling degree days 0 0  
Moisture  
Dew Point 7 °F    
Average Humidity 45    
Maximum Humidity 67    
Minimum Humidity 22    
Precipitation  
Precipitation 0.00 in 0.09 in 1.19 in (2012)
Month to date precipitation 0.95 1.20  
Year to date precipitation 4.60 4.76  
Snow  
Snow 0.00 in 0.10 in 2.00 in (1961)
Month to date snowfall 6.7 1.6  
Since 1 July snowfall 69.5 53.6  
Snow Depth 0.00 in    
Sea Level Pressure  
Sea Level Pressure 30.15 in    
Wind  
Wind Speed 8 mph (NW)    
Max Wind Speed 17 mph    
Max Gust Speed 19 mph    
Visibility 10 miles    
Events      
T = Trace of Precipitation, MM = Missing Value Source: NWS Daily Summary

Daily Weather History Graph

Daily Weather History Graph

Search for Another Location

Airport:

Trip Planner

Search our weather history database for the weather conditions in past years. The results will help you decide how hot, cold, wet, or windy it might be!

Date:

Astronomy

Apr. 15, 2014 Rise Set
Actual Time 6:28 AM CDT 7:58 PM CDT
Civil Twilight 5:57 AM CDT 8:28 PM CDT
Nautical Twilight 5:20 AM CDT 9:06 PM CDT
Astronomical Twilight 4:41 AM CDT 9:45 PM CDT
Moon 8:41 PM CDT (4/15) 6:36 AM CDT (4/15)
Length of Visible Light 14h 31m
Length of Day
13h 29m
Full, 100% of the Moon is Illuminated
Apr 15
Full
Apr 22
Last Quarter
Apr 29
New
May 6
First Quarter
May 14
Full

Hourly Weather History & Observations

Time (CDT) Temp. Windchill Dew Point Humidity Pressure Visibility Wind Dir Wind Speed Gust Speed Precip Events Conditions
12:53 AM 25.0 °F 13.1 °F 12.0 °F 58% 30.15 in 10.0 mi WNW 13.8 mph - N/A   Mostly Cloudy
1:53 AM 24.1 °F 14.4 °F 10.9 °F 57% 30.15 in 10.0 mi NW 9.2 mph - N/A   Mostly Cloudy
2:53 AM 21.9 °F 9.2 °F 10.0 °F 60% 30.16 in 10.0 mi NNW 13.8 mph - N/A   Mostly Cloudy
3:53 AM 21.0 °F 8.6 °F 9.0 °F 60% 30.17 in 10.0 mi NW 12.7 mph - N/A   Partly Cloudy
4:53 AM 19.9 °F 9.3 °F 8.1 °F 60% 30.18 in 10.0 mi NNW 9.2 mph - N/A   Clear
5:53 AM 19.0 °F 6.8 °F 10.0 °F 68% 30.18 in 10.0 mi NW 11.5 mph - N/A   Clear
6:53 AM 19.0 °F 8.2 °F 10.0 °F 68% 30.18 in 10.0 mi NNW 9.2 mph - N/A   Clear
7:53 AM 19.9 °F 8.6 °F 10.0 °F 65% 30.20 in 10.0 mi NNW 10.4 mph - N/A   Clear
8:53 AM 21.9 °F 14.5 °F 9.0 °F 58% 30.21 in 10.0 mi NW 5.8 mph - N/A   Clear
9:53 AM 24.1 °F 15.2 °F 5.0 °F 44% 30.21 in 10.0 mi West 8.1 mph - N/A   Partly Cloudy
10:53 AM 26.1 °F 17.6 °F 6.1 °F 43% 30.21 in 10.0 mi NNW 8.1 mph - N/A   Clear
11:53 AM 28.9 °F 23.9 °F 7.0 °F 40% 30.19 in 10.0 mi Variable 4.6 mph - N/A   Clear
12:53 PM 30.0 °F 25.2 °F 6.1 °F 36% 30.16 in 10.0 mi Variable 4.6 mph - N/A   Partly Cloudy
1:53 PM 32.0 °F 27.5 °F 3.9 °F 31% 30.14 in 10.0 mi North 4.6 mph - N/A   Partly Cloudy
2:53 PM 34.0 °F 28.8 °F 3.0 °F 27% 30.13 in 10.0 mi West 5.8 mph - N/A   Partly Cloudy
3:53 PM 34.0 °F 31.0 °F -0.0 °F 24% 30.10 in 10.0 mi Variable 3.5 mph - N/A   Mostly Cloudy
4:53 PM 36.0 °F - 1.9 °F 24% 30.09 in 10.0 mi Calm Calm - N/A   Scattered Clouds
5:53 PM 35.1 °F - -0.0 °F 23% 30.09 in 10.0 mi Calm Calm - N/A   Mostly Cloudy
6:53 PM 35.1 °F 32.2 °F 1.9 °F 25% 30.09 in 10.0 mi SW 3.5 mph - N/A   Overcast
7:53 PM 35.1 °F 29.3 °F 3.9 °F 27% 30.09 in 10.0 mi SE 6.9 mph - N/A   Overcast
8:53 PM 35.1 °F 27.4 °F 8.1 °F 33% 30.12 in 10.0 mi South 10.4 mph - N/A   Overcast
9:53 PM 34.0 °F 28.0 °F 9.0 °F 35% 30.12 in 10.0 mi SE 6.9 mph - N/A   Overcast
10:53 PM 34.0 °F 26.0 °F 12.9 °F 42% 30.11 in 10.0 mi ESE 10.4 mph - N/A   Overcast
11:53 PM 34.0 °F 25.5 °F 15.1 °F 46% 30.09 in 10.0 mi SE 11.5 mph - N/A   Overcast